Вернуться в каталог

CZ-4C DEB

АктивенLEO
NORAD 43280·DEBRIS·🇨🇳 China

Запущен Apr 10, 2018 с Jiuquan Satellite Launch Center

Loading…

Ближайшие Пролёты (ближайшие 24 часа)

TLE

СвежийSource: Space-Track

Эпоха: Sep 14, 2026, 08:54 UTC

1 43280U 18034F   26257.37148414  .00000024  00000-0  15570-3 0  9994
2 43280  63.3943 239.8026 0277811   7.3427 353.1539 13.44428380413831

Отслеживайте CZ-4C DEB в реальном времени с AllMySat

Download on the App Store